This demonstration page uses our WeatherBlox Daily Observations layout. Learn more.

41.55636, -103.73856

Hourly Observations for December 25, 2019

Temp ( °F °C ) Dew Point ( °F °C ) Humidity (%) Winds ( mph kmh ) Pressure ( in mb ) Visibility ( mi km ) Precip ( " mm )
12:58 am 00:58 Clear 40 4.2 20 -6.8 45 45 SE 8 13 29.78 1009 10 16.0934 0 0
1:58 am 01:58 Clear 37 2.9 17 -8.6 43 43 S 6 9 29.76 1008 10 16.0934 0 0
2:58 am 02:58 Clear 38 3.6 16 -8.7 41 41 SSW 3 6 29.72 1007 10 16.0934 0 0
3:58 am 03:58 Clear 34 1.1 20 -6.7 56 56 WNW 5 7 29.73 1007 10 16.0934 0 0
4:58 am 04:58 Mostly Cloudy 34 1.3 18 -7.6 52 52 SSW 3 6 29.74 1007 10 16.0934 0 0
5:58 am 05:58 Partly Cloudy 32 0.2 19 -7.1 58 58 SW 6 9 29.73 1007 10 16.0934 0 0
6:58 am 06:58 Mostly Cloudy 33 0.7 17 -8.5 51 51 S 5 7 29.69 1005 10 16.0934 0 0
7:58 am 07:58 Mostly Cloudy 33 0.7 19 -7.2 56 56 W 3 6 29.64 1004 10 16.0934 0 0
8:58 am 08:58 Mostly Cloudy 32 -0.1 21 -6.2 64 64 SW 3 6 29.63 1003 10 16.0934 0 0
9:58 am 09:58 Mostly Cloudy 32 0.2 20 -6.5 61 61 WSW 6 9 29.63 1004 10 16.0934 0 0
10:58 am 10:58 Mostly Cloudy 30 -1 19 -7 64 64 W 5 7 29.65 1004 10 16.0934 0 0
11:58 am 11:58 Mostly Cloudy 34 1.3 19 -7.2 54 54 SW 6 9 29.65 1004 10 16.0934 0 0
12:58 pm 12:58 Mostly Cloudy 34 1.2 20 -6.6 56 56 W 6 9 29.65 1004 10 16.0934 0 0
1:58 pm 13:58 Mostly Cloudy 33 0.3 19 -7 58 58 SW 5 7 29.67 1005 10 16.0934 0 0
2:58 pm 14:58 Mostly Cloudy 30 -1 19 -7 64 64 SW 5 7 29.69 1005 10 16.0934 0 0
3:58 pm 15:58 Mostly Sunny 34 1 21 -6 60 60 SW 3 6 29.72 1006 10 16.0934 0 0
4:58 pm 16:58 Mostly Sunny 39 4 25 -4 56 56 NW 6 9 29.71 1006 10 16.0934 0 0
5:58 pm 17:58 Sunny 45 7.1 19 -7.1 36 36 NW 6 9 29.69 1005 10 16.0934 0 0
6:58 pm 18:58 Sunny 47 8.4 15 -9.2 28 28 N 5 7 29.65 1004 10 16.0934 0 0
7:58 pm 19:58 Sunny 47 8.5 20 -6.5 34 34 NW 9 15 29.64 1004 10 16.0934 0 0
8:58 pm 20:58 Mostly Cloudy 46 8 22 -5.4 39 39 WNW 9 15 29.67 1005 10 16.0934 0 0
9:58 pm 21:58 Cloudy 44 6.8 26 -3.5 48 48 NW 13 20 29.71 1006 10 16.0934 0 0
10:58 pm 22:58 Cloudy 42 5.4 26 -3.3 54 54 WNW 6 9 29.77 1008 10 16.0934 0 0
11:58 pm 23:58 Mostly Cloudy 40 4.2 29 -1.9 65 65 W 7 11 29.79 1009 10 16.0934 0 0

Powered by AerisWeather